Location: Mentone
(34.5413°N, 85.5351°W)
Time: 03:30:37
(UTC-05:00)

Tiros 1 despin weight - Visible Passes

Search period start: 26 October 2014 00:00
Search period end: 04 November 2014 23:00
Orbit: 601 x 652 km, 48.2° (Epoch: 25 October)

Date Brightness Start Highest point End Pass type
(mag) Time Alt. Az. Time Alt. Az. Time Alt. Az.
26 Oct ? 05:33:10 10° SSE 05:35:51 15° SE 05:38:31 10° E visible
27 Oct ? 05:50:31 10° SSW 05:54:44 33° SE 05:58:55 10° ENE visible
28 Oct ? 04:31:58 10° SE 04:32:37 10° SE 04:33:16 10° ESE visible
28 Oct ? 06:09:03 10° SW 06:13:45 73° SE 06:18:24 10° ENE visible
29 Oct ? 04:49:19 18° S 04:51:25 24° SE 04:55:11 10° ENE visible
29 Oct ? 06:28:17 10° WSW 06:32:55 57° NNW 06:37:31 10° NE visible
30 Oct ? 05:08:43 35° SSW 05:10:22 52° SE 05:14:55 10° ENE visible
31 Oct ? 03:50:37 12° E 03:50:37 12° E 03:51:10 10° E visible
31 Oct ? 05:27:54 42° WSW 05:29:27 76° NW 05:34:08 10° NE visible
01 Nov ? 04:09:36 20° E 04:09:36 20° E 04:11:18 10° ENE visible
01 Nov ? 05:46:51 28° WNW 05:48:42 40° NNW 05:53:07 10° NE visible
02 Nov ? 03:28:24 28° ENE 03:28:24 28° ENE 03:30:40 10° NE visible
02 Nov ? 05:05:39 17° WNW 05:08:07 25° NNW 05:12:01 10° NE visible
03 Nov ? 03:47:04 31° NNE 03:47:04 31° NNE 03:49:43 10° NE visible
03 Nov ? 05:24:23 10° WNW 05:27:41 18° NNW 05:30:57 10° NNE visible
04 Nov ? 04:05:37 27° N 04:05:37 27° N 04:08:37 10° NE visible
